Regional Weather Roundup
Issued by NWS Green Bay, WI

Home | Current Version | Previous Version | Text Only | Print | Product List | Glossary On
Versions: 1 2 3 4 5 6 7 8 9 10 11 12 13 14 15 16 17 18 19 20 21 22 23 24 25 26 27 28 29 30 31 32 33 34 35 36 37 38 39 40 41 42 43 44 45 46 47 48 49 50
000
ASUS43 KGRB 190759
RWRGRB

NORTH-CENTRAL AND NORTHEAST WISCONSIN REGIONAL WEATHER ROUNDUP
NATIONAL WEATHER SERVICE GREEN BAY WI
300 AM CDT SAT APR 19 2014

WIZ005-009-010>012-018-019-190900-
NORTH CENTRAL WISCONSIN

CITY           SKY/WX    TMP DP  RH WIND       PRES   REMARKS
IRONWOOD       CLOUDY    36  21  55 SE10      30.30S
MANITOWISH WTR NOT AVBL
ARBOR VITAE    NOT AVBL
EAGLE RIVER    NOT AVBL
LAND O LAKES   NOT AVBL
RHINELANDER    CLOUDY    31  23  72 SE12G21   30.36R
PHILLIPS       NOT AVBL
ANTIGO         NOT AVBL
TOMAHAWK       NOT AVBL
MERRILL        NOT AVBL
$$

WIZ013-073-190900-
NORTHEAST WISCONSIN

CITY           SKY/WX    TMP DP  RH WIND       PRES   REMARKS
IRON MOUNTAIN  PTCLDY    24  20  84 SW3       30.40F
MARINETTE      PTCLDY    27  25  93 E5        30.44S
$$

WIZ017-030-035>037-045-190900-
CENTRAL WISCONSIN

CITY           SKY/WX    TMP DP  RH WIND       PRES   REMARKS
MEDFORD        NOT AVBL
WAUSAU         CLOUDY    34  26  72 SE9       30.37R
MOSINEE        NOT AVBL
MARSHFIELD     MOCLDY    35  26  69 SE13      30.36R
WISC RAPIDS    MOCLDY    35  25  66 SE8       30.39R
STEVENS POINT  NOT AVBL
WAUPACA        NOT AVBL
SHAWANO        NOT AVBL
CLINTONVILLE   NOT AVBL
$$

WIZ038-039-048-051-190900-
FOX VALLEY

CITY           SKY/WX    TMP DP  RH WIND       PRES   REMARKS
NWS GREEN BAY  MOCLDY    33  28  81 E5        30.43S
APPLETON       NOT AVBL
OSHKOSH        PTCLDY    34  26  72 SE8       30.40R
FOND DU LAC    PTCLDY    35  25  66 SE7       30.40R
$$

WIZ022-050-052-190900-
EAST CENTRAL WISCONSIN

CITY           SKY/WX    TMP DP  RH WIND       PRES   REMARKS
STURGEON BAY   PTCLDY    30  27  86 E6        30.44F
MANITOWOC      NOT AVBL
SHEBOYGAN      PTCLDY    33  27  78 E7        30.42R
$$

LMZ563-521-522-541>543-190900-
LAKESHORE

STATION/POSITION TIME  TEMP    WIND        PRES    VSBY  WAVE
                       AIR SEA DIR/SP/G                  HT/PER
                 (UTC) (F)     (DEG/KT/KT) (MB)    (MI)  (FT/S)
SHEBOYGAN LKSHOR 0700   36      60/  8/ 10 1031.0R
KEWAUNEE LKSHORE 0700   34      70/  8/ 12 1031.1R
NORTHPORT PIER   0700   33      70/  6/  7 1030.5F
SISTER BAY LKSHO 0700   29        CALM       N/A
MENOMINEE LKSHOR 0700   26      20/  4/  5 1031.4R
$$



USA.gov is the U.S. government's official web portal to all federal, state and local government web resources and services.